[[{"header":{"parameterUnit":"m.s-1","parameterCategory":2,"la1":30.2991,"la2":30.254,"lo1":-89.0895,"lo2":-89.0444,"dy":0.0017,"dx":0.0017,"nx":28,"ny":28,"refTime":"2024-07-18T03:00:00:Z","depth":"0","parameterNumber":2,"parameterNumberName":"U-component_of_CURRENTS"},"data":[0,0,0,0,0,0,0,0,0,0,0,0,0,0,0,0,0,0,0,0,0,0,0,0,0,0,0,0,0,0,0,0,0,0,0,0,0,0,0,0,0,0,0,0,0,0,0,0,0,0,0,0,0,0,0,0,0,0,-0.2243,-0.2246,0,-0.2338,-0.2338,-0.2337,-0.2291,-0.229,-0.229,-0.2289,-0.2116,-0.2112,-0.2108,0,0,0,0,0,0,0,0,0,0,0,0,0,-0.2018,-0.2021,-0.2243,-0.2246,-0.2249,-0.2338,-0.2338,-0.2337,-0.2291,-0.229,-0.2289,-0.2289,-0.2118,-0.2113,-0.2108,0,0,0,0,0,0,0,0,0,0,0,0,0,-0.2096,-0.2022,-0.2242,-0.2252,-0.2255,-0.2338,-0.2338,-0.2337,-0.2291,-0.229,-0.2289,-0.2288,-0.2119,-0.2113,-0.2107,-0.2088,0,0,-0.2089,-0.2086,0,0,0,0,0,0,0,0,-0.2091,-0.2101,-0.2247,-0.2251,-0.2255,-0.232,-0.2197,-0.2247,-0.2291,-0.2256,-0.2289,-0.2288,-0.2173,-0.2163,-0.2158,-0.208,-0.2072,-0.2088,-0.2085,-0.2082,-0.208,0,0,0,0,0,0,0,-0.2086,-0.2097,-0.226,-0.2251,-0.2256,-0.2252,-0.2259,-0.2205,-0.2197,-0.2259,-0.2261,-0.2304,-0.2171,-0.2164,-0.2153,-0.207,-0.2088,-0.2083,-0.2079,-0.2077,-0.2015,-0.2017,0,0,0,0,0,0,-0.2117,-0.2092,-0.2257,-0.2265,-0.2192,-0.2258,-0.2266,-0.2283,-0.2204,-0.2199,-0.2305,-0.2302,-0.2174,-0.216,-0.2146,-0.2148,-0.2082,-0.2076,-0.2073,-0.2013,-0.2015,-0.2017,0,0,0,0,0,0,-0.2111,-0.2129,-0.2254,-0.2198,-0.2216,-0.2265,-0.2284,-0.2286,-0.229,-0.2246,-0.2231,-0.231,-0.2173,-0.2155,-0.2116,-0.214,-0.2074,-0.2068,-0.201,-0.2014,-0.2016,-0.2132,0,0,0,0,0,0,-0.2103,-0.2125,-0.213,-0.22,-0.2222,-0.2326,-0.2287,-0.2289,-0.2328,-0.2324,-0.2245,-0.2228,-0.2171,-0.2126,-0.211,-0.213,-0.2063,-0.2008,-0.2012,-0.2015,-0.2126,-0.2139,-0.215,0,0,0,0,0,-0.2094,-0.2124,-0.2128,-0.215,-0.2231,-0.233,-0.2339,-0.2356,-0.2329,-0.2347,-0.229,-0.2231,-0.2139,-0.2123,-0.2104,-0.2122,-0.2006,-0.2011,-0.2015,-0.2121,-0.2136,-0.215,0,0,0,0,0,0,-0.2035,-0.2127,-0.2132,-0.2187,-0.2264,-0.2331,-0.2361,-0.2368,-0.2339,-0.2322,-0.2244,-0.2225,-0.2211,-0.2153,-0.2137,-0.212,-0.2067,-0.2068,-0.2154,-0.2168,-0.218,-0.2162,-0.2058,0,0,0,0,0,-0.2028,-0.2059,-0.2162,-0.2203,-0.225,-0.2299,-0.2335,-0.2359,-0.2367,-0.2354,-0.2308,-0.2253,-0.2215,-0.218,-0.2146,-0.2118,-0.2063,-0.2124,-0.2137,-0.2147,-0.2123,-0.2082,-0.2087,-0.2032,-0.2032,-0.2032,0,0,-0.202,-0.2074,-0.2093,-0.2191,-0.2242,-0.2324,-0.2313,-0.2393,-0.2424,-0.2336,-0.2332,-0.2297,-0.2224,-0.2211,-0.2197,-0.2159,-0.2142,-0.2153,-0.2162,-0.2131,-0.2087,-0.2092,-0.2096,-0.2035,-0.2035,-0.2034,0,0,-0.2037,-0.2071,-0.211,-0.2188,-0.2298,-0.2344,-0.2376,-0.2455,-0.2448,-0.2466,-0.2411,-0.2384,-0.2333,-0.2284,-0.2248,-0.23,-0.2221,-0.2305,-0.2326,-0.2288,-0.2291,-0.2293,-0.226,-0.2258,-0.2294,-0.2294,-0.2294,0,-0.2019,-0.2073,-0.2142,-0.2221,-0.227,-0.2359,-0.2416,-0.2457,-0.2503,-0.2486,-0.2482,-0.242,-0.2363,-0.232,-0.234,-0.2323,-0.229,-0.2276,-0.2302,-0.2302,-0.2302,-0.2267,-0.2263,-0.23,-0.2299,-0.2299,-0.2298,0,-0.2082,-0.2126,-0.2171,-0.2275,-0.2342,-0.2417,-0.2509,-0.2547,-0.2555,-0.2581,-0.2565,-0.2511,-0.2451,-0.246,-0.2403,-0.2383,-0.2359,-0.2336,-0.2261,-0.2314,-0.2275,-0.2269,-0.2309,-0.2306,-0.2305,-0.2303,0,0,-0.2028,-0.2171,-0.2183,-0.2211,-0.2362,-0.242,-0.2492,-0.2554,-0.2566,-0.2621,-0.2588,-0.2572,-0.2545,-0.2501,-0.245,-0.2421,-0.2404,-0.2375,-0.2371,-0.2335,-0.2326,-0.2228,-0.2211,-0.239,-0.2389,-0.2388,-0.2309,0,-0.2036,-0.2133,-0.2207,-0.2291,-0.2347,-0.2435,-0.2482,-0.2555,-0.2589,-0.2599,-0.2582,-0.2556,-0.2562,-0.2512,-0.2496,-0.2405,-0.2389,-0.2427,-0.2284,-0.2279,-0.2178,-0.22,-0.2051,-0.1959,-0.2302,-0.2301,-0.23,0,-0.2063,-0.2112,-0.2172,-0.2247,-0.2277,-0.234,-0.239,-0.2451,-0.2518,-0.2528,-0.2542,-0.254,-0.2494,-0.2492,-0.241,-0.2435,-0.2385,-0.2348,-0.2343,-0.2193,-0.2167,-0.1955,-0.1934,-0.1937,-0.2289,-0.229,-0.2291,0,-0.1965,-0.2077,-0.2088,-0.2136,-0.2263,-0.2265,-0.2321,-0.2412,-0.2423,-0.2473,-0.246,-0.2475,-0.2409,-0.2394,-0.2341,-0.2358,-0.2255,-0.2259,-0.2146,-0.2139,-0.1947,-0.1924,-0.1891,-0.2215,-0.2215,-0.2215,-0.2215,0,-0.1939,-0.1957,-0.2038,-0.2068,-0.2071,-0.2178,-0.2188,-0.226,-0.2307,-0.2305,-0.2392,-0.2365,-0.2378,-0.234,-0.2322,-0.2204,-0.224,-0.2134,-0.2102,-0.1988,-0.1971,-0.1909,-0.1952,-0.2212,-0.2213,-0.2213,-0.2214,0,-0.1856,-0.1917,-0.1944,-0.2021,-0.2036,-0.2042,-0.211,-0.2117,-0.2183,-0.2163,-0.2163,-0.2235,-0.2194,-0.2219,-0.2162,-0.2124,-0.2013,-0.2023,-0.1896,-0.1849,-0.1715,-0.177,-0.169,-0.1646,-0.1853,-0.185,-0.1848,0,-0.1823,-0.1826,-0.1884,-0.188,-0.1911,-0.1934,-0.1944,-0.204,-0.2034,-0.2081,-0.2034,-0.2038,-0.2036,-0.1956,-0.1877,-0.1817,-0.1897,-0.1662,-0.1658,-0.1669,-0.1708,-0.1783,-0.1759,-0.1468,-0.1463,-0.1458,-0.1455,0,-0.1743,-0.1757,-0.1776,-0.1764,-0.1763,-0.177,-0.1777,-0.1753,-0.1833,-0.1839,-0.1842,-0.1862,-0.1786,-0.1659,-0.1583,-0.1556,-0.1606,-0.1564,-0.1596,-0.1409,-0.1463,-0.1417,-0.1588,-0.1415,-0.1419,-0.1422,-0.1424,-0.1425,-0.1657,-0.1642,-0.1645,-0.1626,-0.1618,-0.1567,-0.1512,-0.1543,-0.1532,-0.1497,-0.1616,-0.1543,-0.1428,-0.1289,-0.1314,-0.1175,-0.1291,-0.1134,-0.1203,-0.1282,-0.1222,-0.1309,-0.1091,-0.1093,-0.1095,-0.1096,-0.1098,0,-0.154,-0.1527,-0.15,-0.1458,-0.1384,-0.143,-0.1363,-0.1304,-0.1253,-0.1244,-0.1272,-0.102,-0.0964,-0.0927,-0.0815,-0.0821,-0.0856,-0.0857,-0.0934,-0.0929,-0.0988,-0.0952,-0.0667,-0.0667,-0.0667,-0.0667,-0.0667,-0.0667,-0.1475,-0.1414,-0.1401,-0.1235,-0.1189,-0.1042,-0.0974,-0.0943,-0.0882,-0.0733,-0.0559,-0.0503,-0.0435,-0.0639,-0.0726,-0.0738,-0.0796,-0.0742,-0.0853,-0.0909,-0.0942,-0.0973,-0.0949,-0.0668,-0.0668,-0.0713,-0.0714,-0.0714]},{"header":{"parameterUnit":"m.s-1","parameterCategory":2,"la1":30.2991,"la2":30.254,"lo1":-89.0895,"lo2":-89.0444,"dy":0.0017,"dx":0.0017,"nx":28,"ny":28,"refTime":"2024-07-18T03:00:00:Z","depth":"0","parameterNumber":3,"parameterNumberName":"V-component_of_CURRENTS"},"data":[0,0,0,0,0,0,0,0,0,0,0,0,0,0,0,0,0,0,0,0,0,0,0,0,0,0,0,0,0,0,0,0,0,0,0,0,0,0,0,0,0,0,0,0,0,0,0,0,0,0,0,0,0,0,0,0,0,0,0.0032,0.0035,0,0.0288,0.029,0.0292,0.0397,0.0397,0.0397,0.0397,0.0451,0.0453,0.0454,0,0,0,0,0,0,0,0,0,0,0,0,0,-0.0144,-0.0143,0.0032,0.0036,0.0039,0.0287,0.029,0.0293,0.0397,0.0397,0.0397,0.0397,0.0451,0.0452,0.0454,0,0,0,0,0,0,0,0,0,0,0,0,0,-0.0002,-0.0143,0.0031,0.0125,0.0137,0.0287,0.029,0.0294,0.0398,0.0397,0.0397,0.0397,0.045,0.0452,0.0455,0.047,0,0,0.0461,0.0462,0,0,0,0,0,0,0,0,-0.001,0.0004,0.0108,0.0119,0.0132,0.0315,0.0249,0.0345,0.0398,0.0293,0.0397,0.0397,0.0391,0.0398,0.0441,0.0473,0.0475,0.0462,0.0463,0.0464,0.0465,0,0,0,0,0,0,0,-0.0021,-0.0005,0.0128,0.0112,0.0127,0.0231,0.0249,0.0269,0.0331,0.0302,0.0311,0.0349,0.0395,0.0439,0.0443,0.0476,0.0462,0.0463,0.0465,0.0466,0.0465,0.0464,0,0,0,0,0,0,-0.0053,-0.0016,0.012,0.0136,0.0066,0.0234,0.0253,0.0252,0.0336,0.0352,0.0348,0.0353,0.0435,0.044,0.0445,0.0432,0.0464,0.0466,0.0467,0.0466,0.0465,0.0463,0,0,0,0,0,0,-0.0058,-0.0045,0.0109,0.0073,0.01,0.0236,0.0235,0.0257,0.0315,0.0374,0.0385,0.0384,0.0435,0.0442,0.0452,0.0436,0.0467,0.0469,0.0468,0.0466,0.0464,0.0428,0,0,0,0,0,0,-0.0065,-0.0049,-0.0057,0.0069,0.0101,0.0192,0.0236,0.0263,0.034,0.0348,0.0408,0.0413,0.0436,0.0449,0.0454,0.0439,0.0471,0.047,0.0467,0.0464,0.0431,0.0425,0.042,0,0,0,0,0,-0.0073,-0.0086,-0.006,-0.0042,0.0083,0.0193,0.0219,0.0314,0.0341,0.0364,0.0392,0.0412,0.0436,0.045,0.0457,0.0442,0.0471,0.0468,0.0465,0.0434,0.0426,0.042,0,0,0,0,0,0,-0.0151,-0.0072,-0.0042,-0.0027,0.0074,0.0213,0.0244,0.0316,0.0366,0.0364,0.0408,0.0414,0.0412,0.0429,0.0444,0.043,0.0451,0.0449,0.0425,0.0419,0.0413,0.0402,0.0473,0,0,0,0,0,-0.0177,-0.0178,-0.0062,-0.0046,-0.001,0.0117,0.0176,0.0248,0.0317,0.0344,0.0378,0.0397,0.0406,0.0414,0.0424,0.0429,0.0432,0.0416,0.0411,0.0406,0.0399,0.0391,0.0384,0.0453,0.0453,0.0453,0,0,-0.0193,-0.0153,-0.0147,-0.0062,0.0011,0.0067,0.0149,0.0236,0.0278,0.0333,0.0361,0.0381,0.0401,0.0399,0.0399,0.0413,0.0386,0.0403,0.0399,0.0394,0.0387,0.038,0.0375,0.0451,0.0451,0.0452,0,0,-0.0233,-0.0206,-0.022,-0.0146,-0.0037,0.0041,0.0062,0.019,0.0231,0.0279,0.0308,0.0323,0.0351,0.0363,0.0371,0.0341,0.0355,0.0334,0.0306,0.0297,0.0292,0.0287,0.0277,0.0272,0.0335,0.0335,0.0334,0,-0.0255,-0.0264,-0.0194,-0.0172,-0.013,0.0017,0.0032,0.0115,0.0231,0.0233,0.027,0.03,0.0334,0.0321,0.0319,0.0331,0.0323,0.0335,0.0292,0.0287,0.0283,0.0274,0.0268,0.0332,0.0333,0.0333,0.0333,0,-0.0289,-0.0288,-0.0284,-0.0235,-0.018,-0.013,-0.002,0.0028,0.0089,0.016,0.0168,0.0226,0.0236,0.0254,0.0289,0.0266,0.0268,0.0285,0.0313,0.0274,0.0266,0.0261,0.0329,0.033,0.0331,0.0331,0,0,-0.0353,-0.0326,-0.032,-0.0326,-0.0216,-0.0171,-0.0132,-0.0069,-0.0068,0.0045,0.0008,0.0095,0.0136,0.0147,0.019,0.0209,0.0196,0.0237,0.0238,0.0234,0.0166,0.029,0.0297,0.0202,0.0201,0.0201,0.0171,0,-0.04,-0.0421,-0.0389,-0.0385,-0.0384,-0.0286,-0.0274,-0.0194,-0.0136,-0.0133,-0.0046,-0.0045,0.0094,0.0081,0.013,0.0146,0.0181,0.0202,0.0198,0.0197,0.0319,0.0295,0.0396,0.0389,0.0166,0.0165,0.0165,0,-0.0435,-0.0455,-0.0495,-0.0505,-0.0501,-0.0474,-0.0463,-0.0422,-0.0365,-0.0338,-0.0285,-0.0226,-0.018,-0.0069,0.0014,0.0014,0.01,0.0147,0.0147,0.0273,0.0313,0.0391,0.0389,0.0535,0.0158,0.0158,0.0159,0,-0.0513,-0.0524,-0.0584,-0.0566,-0.0544,-0.0566,-0.0543,-0.049,-0.0493,-0.0468,-0.0507,-0.0409,-0.042,-0.0282,-0.0099,-0.0076,-0.0022,0.0008,0.0212,0.022,0.0312,0.0332,0.0461,0.0082,0.0082,0.0082,0.0082,0,-0.0571,-0.0603,-0.0624,-0.0635,-0.0703,-0.0656,-0.0711,-0.0673,-0.0674,-0.0734,-0.0613,-0.0679,-0.0475,-0.0396,-0.0198,0.0005,-0.0084,0.0204,0.0224,0.0304,0.0322,0.0461,0.0513,0.0081,0.0081,0.0081,0.0082,0,-0.0625,-0.064,-0.0696,-0.0724,-0.0735,-0.077,-0.0793,-0.0831,-0.0824,-0.0922,-0.0933,-0.0908,-0.0785,-0.0521,-0.035,-0.015,0.0162,0.0154,0.0248,0.0285,0.0622,0.0668,0.0772,0.0892,0.0328,0.0331,0.0333,0,-0.0655,-0.0694,-0.0756,-0.0793,-0.0805,-0.0851,-0.0891,-0.0888,-0.0955,-0.1075,-0.1167,-0.1089,-0.1011,-0.0666,-0.0252,0.0148,0.028,0.0405,0.0501,0.0663,0.0725,0.0728,0.082,0.0588,0.0592,0.0596,0.0599,0,-0.0707,-0.0733,-0.078,-0.0855,-0.0912,-0.0994,-0.107,-0.1159,-0.1221,-0.1322,-0.1485,-0.1436,-0.1036,-0.0551,0.0042,0.0264,0.0538,0.0491,0.0619,0.0921,0.0964,0.1083,0.0574,0.0631,0.0627,0.0625,0.0623,0.0622,-0.0733,-0.0784,-0.0843,-0.0911,-0.0989,-0.113,-0.1207,-0.1344,-0.1489,-0.1602,-0.1637,-0.1409,-0.0663,0.0201,0.0372,0.091,0.0837,0.1059,0.1088,0.1064,0.1239,0.0821,0.0939,0.0938,0.0936,0.0935,0.0934,0,-0.0757,-0.0815,-0.0886,-0.0991,-0.1075,-0.111,-0.1313,-0.1397,-0.1598,-0.1555,-0.1579,-0.0667,-0.0001,0.064,0.1386,0.1531,0.1524,0.1568,0.1581,0.1642,0.1242,0.132,0.1574,0.1574,0.1574,0.1573,0.1573,0.1573,-0.0771,-0.0846,-0.0888,-0.1023,-0.1091,-0.1216,-0.1326,-0.1487,-0.1461,-0.1204,-0.0696,-0.0272,0.072,0.1485,0.1965,0.1979,0.2109,0.2049,0.2109,0.1828,0.1782,0.1737,0.1825,0.2181,0.2182,0.2525,0.2529,0.2531]}],[{"header":{"parameterUnit":"m.s-1","parameterCategory":2,"la1":30.2991,"la2":30.254,"lo1":-89.0895,"lo2":-89.0444,"dy":0.0017,"dx":0.0017,"nx":28,"ny":28,"refTime":"2024-07-18T03:00:00:Z","depth":"2","parameterNumber":2,"parameterNumberName":"U-component_of_CURRENTS"},"data":[0,0,0,0,0,0,0,0,0,0,0,0,0,0,0,0,0,0,0,0,0,0,0,0,0,0,0,0,0,0,0,0,0,0,0,0,0,0,0,0,0,0,0,0,0,0,0,0,0,0,0,0,0,0,0,0,0,0,-0.1967,-0.1967,0,-0.1971,-0.1972,-0.1972,-0.1896,-0.1893,-0.1891,-0.1888,-0.2184,-0.2194,-0.2204,0,0,0,0,0,0,0,0,0,0,0,0,0,-0.1919,-0.1921,-0.1967,-0.1967,-0.1967,-0.1971,-0.1972,-0.1972,-0.1896,-0.1893,-0.189,-0.1887,-0.2181,-0.2193,-0.2205,0,0,0,0,0,0,0,0,0,0,0,0,0,-0.1938,-0.1921,-0.1967,-0.1926,-0.1922,-0.1971,-0.1972,-0.1972,-0.1897,-0.1893,-0.1889,-0.1886,-0.2177,-0.2191,-0.2206,-0.2375,0,0,-0.2253,-0.226,0,0,0,0,0,0,0,0,-0.1937,-0.194,-0.1932,-0.1929,-0.1924,-0.1925,-0.2062,-0.212,-0.1898,-0.1911,-0.1888,-0.1884,-0.2124,-0.2144,-0.2155,-0.2389,-0.2402,-0.2254,-0.2264,-0.227,-0.2275,0,0,0,0,0,0,0,-0.1936,-0.194,-0.1974,-0.1932,-0.1927,-0.1915,-0.1914,-0.2072,-0.2048,-0.191,-0.1903,-0.1897,-0.2124,-0.214,-0.2162,-0.2406,-0.2254,-0.2268,-0.2277,-0.2283,-0.2729,-0.2732,0,0,0,0,0,0,-0.1929,-0.1939,-0.1973,-0.1973,-0.1916,-0.1919,-0.1918,-0.1932,-0.204,-0.2048,-0.1901,-0.1894,-0.2116,-0.2144,-0.2173,-0.2309,-0.227,-0.2284,-0.2293,-0.2727,-0.273,-0.2733,0,0,0,0,0,0,-0.1929,-0.1933,-0.1973,-0.1951,-0.1954,-0.1923,-0.1941,-0.1934,-0.1926,-0.2028,-0.2043,-0.1894,-0.2114,-0.2151,-0.2336,-0.2323,-0.2291,-0.2305,-0.2724,-0.2728,-0.2731,-0.263,0,0,0,0,0,0,-0.1928,-0.1934,-0.1944,-0.1951,-0.1955,-0.1987,-0.1943,-0.1937,-0.1928,-0.1918,-0.2031,-0.2053,-0.2114,-0.2313,-0.2351,-0.2344,-0.2317,-0.272,-0.2725,-0.273,-0.263,-0.2631,-0.2631,0,0,0,0,0,-0.1927,-0.1948,-0.1945,-0.1948,-0.197,-0.1987,-0.1989,-0.1956,-0.1931,-0.1935,-0.2042,-0.2049,-0.2368,-0.2331,-0.2374,-0.237,-0.2718,-0.2724,-0.273,-0.263,-0.263,-0.2631,0,0,0,0,0,0,-0.1921,-0.1943,-0.1939,-0.1963,-0.1968,-0.1971,-0.1975,-0.1961,-0.2041,-0.2046,-0.2135,-0.217,-0.2328,-0.239,-0.2344,-0.2516,-0.2526,-0.2541,-0.2435,-0.2437,-0.2437,-0.2355,-0.233,0,0,0,0,0,-0.1933,-0.1956,-0.1968,-0.1984,-0.1993,-0.199,-0.1992,-0.1974,-0.2037,-0.2059,-0.2143,-0.2255,-0.2395,-0.2444,-0.259,-0.2707,-0.2689,-0.2721,-0.2721,-0.272,-0.2687,-0.2653,-0.2643,-0.2753,-0.2753,-0.2753,0,0,-0.1929,-0.1947,-0.1955,-0.1984,-0.1991,-0.2005,-0.1982,-0.1988,-0.199,-0.21,-0.217,-0.2301,-0.2446,-0.2569,-0.2634,-0.2604,-0.2688,-0.2728,-0.2725,-0.2692,-0.2657,-0.2645,-0.2634,-0.2757,-0.2756,-0.2756,0,0,-0.194,-0.1961,-0.1985,-0.1999,-0.201,-0.2013,-0.2012,-0.2032,-0.2028,-0.2138,-0.2216,-0.2322,-0.2529,-0.2583,-0.2651,-0.2749,-0.2727,-0.2799,-0.269,-0.2657,-0.2645,-0.2634,-0.2603,-0.2589,-0.2749,-0.2749,-0.2749,0,-0.1932,-0.1967,-0.199,-0.2015,-0.2025,-0.2015,-0.2035,-0.204,-0.2111,-0.2138,-0.215,-0.2397,-0.2513,-0.2619,-0.2639,-0.2736,-0.2721,-0.2666,-0.2645,-0.2634,-0.2624,-0.2595,-0.2581,-0.2745,-0.2745,-0.2746,-0.2746,0,-0.1957,-0.1983,-0.2,-0.2031,-0.2051,-0.2063,-0.2077,-0.2103,-0.2115,-0.2118,-0.2232,-0.2365,-0.2485,-0.253,-0.2624,-0.2625,-0.2641,-0.2677,-0.2614,-0.2604,-0.2578,-0.2565,-0.2739,-0.2741,-0.2742,-0.2743,0,0,-0.1932,-0.2004,-0.2004,-0.2024,-0.206,-0.2073,-0.2107,-0.2131,-0.2138,-0.2172,-0.219,-0.2359,-0.2379,-0.2457,-0.2544,-0.2487,-0.2422,-0.2531,-0.2532,-0.2446,-0.2341,-0.228,-0.2261,-0.244,-0.2438,-0.2436,-0.2349,0,-0.1935,-0.1982,-0.2026,-0.2055,-0.2077,-0.2111,-0.2143,-0.2163,-0.2186,-0.2206,-0.2236,-0.232,-0.2358,-0.2419,-0.2367,-0.2467,-0.2385,-0.2442,-0.2411,-0.241,-0.2309,-0.2242,-0.2071,-0.1973,-0.2337,-0.2335,-0.2334,0,-0.193,-0.1967,-0.2007,-0.2074,-0.209,-0.2106,-0.2156,-0.2184,-0.2207,-0.2234,-0.2245,-0.2287,-0.2284,-0.2296,-0.2274,-0.2311,-0.2303,-0.2305,-0.2303,-0.226,-0.2323,-0.2049,-0.1936,-0.2313,-0.2314,-0.2316,-0.2317,0,-0.1876,-0.1946,-0.1976,-0.1995,-0.2071,-0.2102,-0.2137,-0.2182,-0.2205,-0.2227,-0.2245,-0.2236,-0.2258,-0.2209,-0.223,-0.2254,-0.2166,-0.2212,-0.2117,-0.2115,-0.1967,-0.1955,-0.2116,-0.2116,-0.2117,-0.2117,-0.2117,0,-0.1851,-0.1871,-0.1947,-0.1959,-0.1991,-0.2065,-0.2094,-0.2141,-0.2187,-0.2187,-0.2234,-0.2222,-0.2231,-0.2201,-0.2188,-0.2105,-0.2126,-0.206,-0.2067,-0.1936,-0.1922,-0.2229,-0.2243,-0.2114,-0.2114,-0.2115,-0.2116,0,-0.1779,-0.1833,-0.1863,-0.1943,-0.1962,-0.1979,-0.2055,-0.2069,-0.2142,-0.2145,-0.2149,-0.22,-0.2161,-0.2146,-0.21,-0.2062,-0.1995,-0.1955,-0.1802,-0.179,-0.1973,-0.1985,-0.1819,-0.1816,-0.1813,-0.1811,-0.1809,0,-0.1747,-0.1752,-0.1818,-0.1822,-0.1852,-0.1891,-0.1912,-0.2014,-0.203,-0.2107,-0.2091,-0.2093,-0.205,-0.197,-0.1887,-0.1792,-0.1895,-0.1605,-0.1603,-0.1907,-0.1932,-0.1948,-0.1963,-0.1381,-0.1375,-0.1371,-0.1368,0,-0.1671,-0.1689,-0.1711,-0.1717,-0.1733,-0.1761,-0.1802,-0.1813,-0.1916,-0.1932,-0.1937,-0.1916,-0.1855,-0.1685,-0.1599,-0.1531,-0.1609,-0.1512,-0.1833,-0.1497,-0.149,-0.1517,-0.1546,-0.1329,-0.1333,-0.1335,-0.1338,-0.1339,-0.1592,-0.1582,-0.1596,-0.1593,-0.1608,-0.1605,-0.1583,-0.1625,-0.1632,-0.1615,-0.1729,-0.1648,-0.1627,-0.1388,-0.1294,-0.1212,-0.1334,-0.1276,-0.129,-0.1309,-0.1287,-0.1277,-0.1071,-0.1074,-0.1076,-0.1078,-0.1079,0,-0.1485,-0.1479,-0.1467,-0.1459,-0.1419,-0.1473,-0.1479,-0.143,-0.1373,-0.1374,-0.137,-0.1236,-0.1119,-0.1095,-0.089,-0.0859,-0.0864,-0.0834,-0.0839,-0.0876,-0.091,-0.0871,-0.0543,-0.0541,-0.054,-0.0539,0,0,-0.1427,-0.1377,-0.1371,-0.1266,-0.1251,-0.1168,-0.1141,-0.1078,-0.1053,-0.0944,-0.0893,-0.1022,-0.104,-0.0803,-0.074,-0.0599,-0.0736,-0.0561,-0.0983,-0.1023,-0.1055,-0.1145,-0.1123,0,0,0,0,0]},{"header":{"parameterUnit":"m.s-1","parameterCategory":2,"la1":30.2991,"la2":30.254,"lo1":-89.0895,"lo2":-89.0444,"dy":0.0017,"dx":0.0017,"nx":28,"ny":28,"refTime":"2024-07-18T03:00:00:Z","depth":"2","parameterNumber":3,"parameterNumberName":"V-component_of_CURRENTS"},"data":[0,0,0,0,0,0,0,0,0,0,0,0,0,0,0,0,0,0,0,0,0,0,0,0,0,0,0,0,0,0,0,0,0,0,0,0,0,0,0,0,0,0,0,0,0,0,0,0,0,0,0,0,0,0,0,0,0,0,-0.0185,-0.0185,0,-0.0222,-0.0223,-0.0224,-0.0236,-0.0235,-0.0234,-0.0234,0.0018,0.0024,0.0029,0,0,0,0,0,0,0,0,0,0,0,0,0,-0.0194,-0.0194,-0.0185,-0.0185,-0.0185,-0.0222,-0.0223,-0.0224,-0.0236,-0.0235,-0.0234,-0.0233,0.0016,0.0023,0.003,0,0,0,0,0,0,0,0,0,0,0,0,0,-0.0213,-0.0194,-0.0185,-0.019,-0.0191,-0.0222,-0.0223,-0.0225,-0.0236,-0.0235,-0.0234,-0.0233,0.0013,0.0022,0.0031,0.0062,0,0,0.0058,0.0062,0,0,0,0,0,0,0,0,-0.0212,-0.0213,-0.019,-0.019,-0.019,-0.0217,-0.0134,-0.0112,-0.0236,-0.0226,-0.0234,-0.0232,-0.003,-0.0018,-0.0041,0.0074,0.0085,0.0059,0.0064,0.0068,0.0071,0,0,0,0,0,0,0,-0.021,-0.0212,-0.0207,-0.0189,-0.019,-0.0214,-0.0215,-0.0132,-0.0134,-0.0227,-0.0226,-0.022,-0.0029,-0.005,-0.0034,0.0088,0.0059,0.0067,0.0072,0.0076,0.0343,0.0345,0,0,0,0,0,0,-0.019,-0.0211,-0.0205,-0.0207,-0.0191,-0.0214,-0.0216,-0.0215,-0.0141,-0.013,-0.0221,-0.022,-0.0066,-0.0045,-0.0025,0.0071,0.0068,0.0077,0.0082,0.0342,0.0344,0.0346,0,0,0,0,0,0,-0.019,-0.0189,-0.0204,-0.0204,-0.0207,-0.0214,-0.0214,-0.0217,-0.0237,-0.0139,-0.0122,-0.0237,-0.0064,-0.0038,0.006,0.008,0.0081,0.0089,0.0339,0.0342,0.0345,0.0231,0,0,0,0,0,0,-0.019,-0.019,-0.0193,-0.0203,-0.0206,-0.0231,-0.0214,-0.0218,-0.0231,-0.0231,-0.0146,-0.0123,-0.0061,0.0046,0.0069,0.0092,0.0096,0.0337,0.0341,0.0344,0.0232,0.0229,0.0226,0,0,0,0,0,-0.0191,-0.0206,-0.0194,-0.0193,-0.0207,-0.0231,-0.0237,-0.0242,-0.0233,-0.0255,-0.0177,-0.0126,0.0084,0.0054,0.0081,0.0107,0.0336,0.034,0.0344,0.0234,0.023,0.0227,0,0,0,0,0,0,-0.022,-0.0208,-0.0195,-0.0207,-0.0216,-0.023,-0.0246,-0.0248,-0.0217,-0.02,-0.0112,-0.0083,0.0033,0.0082,0.0046,0.0199,0.0223,0.0232,0.0131,0.0128,0.0125,0.0059,0.0103,0,0,0,0,0,-0.0222,-0.0228,-0.0221,-0.0233,-0.0233,-0.024,-0.0251,-0.0255,-0.0223,-0.0215,-0.0154,-0.0056,0.0065,0.0102,0.0214,0.0267,0.0299,0.0308,0.0305,0.0302,0.027,0.0327,0.0324,0.0359,0.0359,0.0358,0,0,-0.0236,-0.023,-0.0233,-0.0239,-0.0244,-0.0265,-0.0247,-0.0266,-0.0285,-0.0179,-0.0171,-0.0045,0.0091,0.0175,0.0227,0.021,0.0314,0.0307,0.0302,0.0272,0.033,0.0326,0.0323,0.0361,0.0361,0.036,0,0,-0.0274,-0.0258,-0.0278,-0.0281,-0.0283,-0.0291,-0.0295,-0.0304,-0.0307,-0.0281,-0.0167,-0.0063,0.0061,0.0152,0.0224,0.0267,0.0328,0.0331,0.0221,0.0277,0.0273,0.0269,0.0306,0.0307,0.0289,0.0289,0.0289,0,-0.029,-0.0307,-0.0291,-0.0308,-0.0311,-0.0302,-0.0326,-0.0338,-0.0319,-0.0293,-0.0284,-0.0065,0.0041,0.0173,0.0184,0.0255,0.0293,0.0215,0.0266,0.0263,0.0262,0.0301,0.0303,0.0284,0.0285,0.0285,0.0286,0,-0.0344,-0.035,-0.0362,-0.0374,-0.0383,-0.0402,-0.0397,-0.04,-0.0391,-0.038,-0.0265,-0.0145,-0.0019,0.0044,0.0119,0.0194,0.023,0.0281,0.0253,0.025,0.0293,0.0297,0.0277,0.0279,0.028,0.0282,0,0,-0.0386,-0.0398,-0.0398,-0.041,-0.0412,-0.0432,-0.0438,-0.0433,-0.0421,-0.04,-0.0362,-0.0202,-0.0137,-0.0052,0.007,0.0084,0.011,0.0149,0.0154,0.0146,0.022,0.0268,0.0278,0.0168,0.0168,0.0169,0.0253,0,-0.0429,-0.0478,-0.0464,-0.0507,-0.0529,-0.0496,-0.0509,-0.0494,-0.0462,-0.0424,-0.032,-0.022,-0.0173,-0.0089,-0.0068,0.0118,0.0116,0.0081,0.0259,0.0263,0.0273,0.0283,0.0273,0.035,0.0258,0.0258,0.0259,0,-0.0482,-0.0506,-0.0555,-0.0564,-0.0567,-0.0589,-0.0567,-0.0572,-0.0498,-0.0463,-0.0378,-0.0274,-0.0179,-0.0156,0.0006,-0.0013,0.0071,0.0152,0.0159,0.0236,0.0318,0.0345,0.0362,0.0267,0.0266,0.0265,0.0265,0,-0.0535,-0.0563,-0.0607,-0.0612,-0.0627,-0.0625,-0.0626,-0.0576,-0.0567,-0.0469,-0.0428,-0.0309,-0.0215,-0.0124,0.0035,0.0033,0.0192,0.0228,0.0327,0.0331,0.0372,0.038,0.0283,0.0283,0.0283,0.0283,0.0283,0,-0.0587,-0.0616,-0.0637,-0.0661,-0.0703,-0.0679,-0.0691,-0.0659,-0.0598,-0.0553,-0.0449,-0.0362,-0.0206,-0.008,0.0024,0.0192,0.0186,0.0297,0.0355,0.0337,0.0341,0.031,0.0312,0.0286,0.0285,0.0285,0.0284,0,-0.0636,-0.0651,-0.0702,-0.0724,-0.0733,-0.076,-0.0756,-0.0753,-0.0683,-0.0606,-0.0573,-0.0395,-0.021,-0.0075,0.0126,0.0207,0.035,0.0399,0.0357,0.0407,0.0445,0.0441,0.0516,0.0518,0.052,0.0522,0.0524,0,-0.0664,-0.0701,-0.0756,-0.0788,-0.0799,-0.0829,-0.0846,-0.0808,-0.0782,-0.0604,-0.056,-0.0359,-0.018,0.01,0.0272,0.0442,0.0417,0.052,0.0505,0.042,0.0469,0.0461,0.0455,0.0518,0.0519,0.052,0.0521,0,-0.0712,-0.0736,-0.0779,-0.0847,-0.0884,-0.0924,-0.0924,-0.091,-0.0813,-0.0708,-0.0496,-0.0327,-0.0037,0.0207,0.0413,0.0501,0.0492,0.0548,0.0493,0.046,0.0429,0.0474,0.0466,0.053,0.0529,0.0528,0.0528,0.0527,-0.0737,-0.0784,-0.084,-0.09,-0.095,-0.0973,-0.096,-0.0924,-0.0838,-0.0613,-0.044,-0.0152,0.003,0.0373,0.0507,0.0612,0.0606,0.0626,0.062,0.0613,0.0599,0.0573,0.0696,0.0696,0.0696,0.0696,0.0696,0,-0.076,-0.0816,-0.0881,-0.0953,-0.1004,-0.1017,-0.0982,-0.0925,-0.0782,-0.053,-0.029,-0.0041,0.0237,0.0397,0.0597,0.0713,0.0673,0.0706,0.0638,0.063,0.0622,0.0604,0.0705,0.0705,0.0706,0.0706,0,0,-0.0775,-0.0845,-0.0885,-0.0973,-0.1018,-0.1028,-0.0983,-0.0869,-0.0676,-0.0413,-0.0186,0.0104,0.0301,0.0428,0.0556,0.066,0.0616,0.0654,0.064,0.0541,0.0532,0.0572,0.0536,0,0,0,0,0]}],[{"header":{"parameterUnit":"m.s-1","parameterCategory":2,"la1":30.2991,"la2":30.254,"lo1":-89.0895,"lo2":-89.0444,"dy":0.0017,"dx":0.0017,"nx":28,"ny":28,"refTime":"2024-07-18T03:00:00:Z","depth":"4","parameterNumber":2,"parameterNumberName":"U-component_of_CURRENTS"},"data":[0,0,0,0,0,0,0,0,0,0,0,0,0,0,0,0,0,0,0,0,0,0,0,0,0,0,0,0,0,0,0,0,0,0,0,0,0,0,0,0,0,0,0,0,0,0,0,0,0,0,0,0,0,0,0,0,0,0,-0.1409,-0.1409,0,-0.1452,-0.1453,-0.1454,-0.1471,-0.147,-0.147,-0.1469,-0.1507,-0.1509,-0.1511,0,0,0,0,0,0,0,0,0,0,0,0,0,-0.1373,-0.1374,-0.1409,-0.1409,-0.1409,-0.1452,-0.1453,-0.1454,-0.1471,-0.147,-0.1469,-0.1469,-0.1507,-0.1509,-0.1511,0,0,0,0,0,0,0,0,0,0,0,0,0,-0.1406,-0.1374,-0.1409,-0.1417,-0.1418,-0.1452,-0.1453,-0.1455,-0.1471,-0.147,-0.1469,-0.1468,-0.1506,-0.1508,-0.1511,-0.1549,0,0,-0.1519,-0.152,0,0,0,0,0,0,0,0,-0.1404,-0.1408,-0.1416,-0.1417,-0.1418,-0.1449,-0.1454,-0.1484,-0.1472,-0.1458,-0.1469,-0.1468,-0.1484,-0.1488,-0.1508,-0.1551,-0.1553,-0.1519,-0.1521,-0.1522,-0.1522,0,0,0,0,0,0,0,-0.1402,-0.1407,-0.1433,-0.1416,-0.1417,-0.1429,-0.1433,-0.1461,-0.1482,-0.146,-0.1459,-0.1453,-0.1485,-0.1506,-0.1509,-0.1553,-0.1519,-0.1521,-0.1523,-0.1524,-0.1653,-0.1654,0,0,0,0,0,0,-0.1383,-0.1404,-0.1432,-0.1434,-0.14,-0.143,-0.1435,-0.1446,-0.1482,-0.1484,-0.1454,-0.1454,-0.1502,-0.1506,-0.1511,-0.1562,-0.1522,-0.1524,-0.1526,-0.1651,-0.1653,-0.1655,0,0,0,0,0,0,-0.1382,-0.1385,-0.143,-0.1413,-0.1419,-0.1431,-0.1444,-0.1447,-0.1478,-0.1477,-0.148,-0.1481,-0.1501,-0.1507,-0.1551,-0.1563,-0.1525,-0.1528,-0.1648,-0.1651,-0.1654,-0.1663,0,0,0,0,0,0,-0.1381,-0.1386,-0.1406,-0.1413,-0.1419,-0.1451,-0.1444,-0.1448,-0.1472,-0.1472,-0.1501,-0.1503,-0.1501,-0.1547,-0.1553,-0.1566,-0.153,-0.1646,-0.165,-0.1653,-0.166,-0.1665,-0.167,0,0,0,0,0,-0.138,-0.1399,-0.1408,-0.1411,-0.1441,-0.1451,-0.1457,-0.1465,-0.1474,-0.1491,-0.1518,-0.1502,-0.1573,-0.1551,-0.1558,-0.1572,-0.1644,-0.1649,-0.1653,-0.1658,-0.1664,-0.167,0,0,0,0,0,0,-0.1389,-0.1402,-0.1412,-0.1434,-0.1443,-0.1451,-0.1468,-0.1479,-0.1518,-0.1524,-0.1531,-0.1536,-0.1574,-0.1586,-0.1561,-0.1623,-0.1605,-0.1611,-0.1607,-0.1613,-0.1618,-0.1615,-0.1532,0,0,0,0,0,-0.1401,-0.1426,-0.143,-0.1451,-0.1456,-0.1472,-0.1484,-0.1489,-0.151,-0.1526,-0.1549,-0.1577,-0.1598,-0.1615,-0.1636,-0.168,-0.1673,-0.1695,-0.17,-0.1704,-0.1709,-0.1724,-0.173,-0.1669,-0.1669,-0.1669,0,0,-0.1407,-0.142,-0.1433,-0.1455,-0.1468,-0.1485,-0.1479,-0.1496,-0.1521,-0.1525,-0.1583,-0.1595,-0.1615,-0.1652,-0.1671,-0.1663,-0.1715,-0.1709,-0.1712,-0.1715,-0.1729,-0.1734,-0.1739,-0.1672,-0.1671,-0.1671,0,0,-0.142,-0.1446,-0.1467,-0.1478,-0.1493,-0.1505,-0.1513,-0.1536,-0.1558,-0.1609,-0.1612,-0.1634,-0.169,-0.1692,-0.1702,-0.1755,-0.1738,-0.1771,-0.1795,-0.181,-0.1814,-0.1818,-0.1795,-0.1797,-0.1776,-0.1776,-0.1776,0,-0.1429,-0.1457,-0.1472,-0.1489,-0.1508,-0.1516,-0.1541,-0.1564,-0.1603,-0.163,-0.1629,-0.1702,-0.1703,-0.1738,-0.175,-0.1761,-0.1765,-0.1762,-0.1813,-0.1817,-0.182,-0.1797,-0.1799,-0.1777,-0.1777,-0.1777,-0.1777,0,-0.1442,-0.1477,-0.1487,-0.1522,-0.1548,-0.1566,-0.159,-0.1629,-0.1661,-0.1679,-0.1732,-0.1742,-0.1782,-0.1782,-0.1781,-0.1814,-0.1805,-0.1809,-0.1787,-0.1826,-0.18,-0.1801,-0.1778,-0.1778,-0.1778,-0.1777,0,0,-0.1423,-0.1488,-0.1492,-0.1526,-0.157,-0.1588,-0.1643,-0.169,-0.1725,-0.176,-0.1807,-0.183,-0.1833,-0.1846,-0.1843,-0.185,-0.1855,-0.1847,-0.1848,-0.1807,-0.1873,-0.1736,-0.1724,-0.1879,-0.188,-0.188,-0.1835,0,-0.143,-0.1478,-0.1517,-0.1574,-0.16,-0.1648,-0.1701,-0.1745,-0.1782,-0.1827,-0.1835,-0.1869,-0.1858,-0.1873,-0.1882,-0.1867,-0.1866,-0.1866,-0.1858,-0.1857,-0.1716,-0.1723,-0.1884,-0.1836,-0.1836,-0.1836,-0.1836,0,-0.1414,-0.146,-0.1519,-0.1614,-0.1633,-0.1676,-0.1765,-0.1811,-0.1865,-0.1894,-0.1928,-0.1932,-0.1945,-0.1929,-0.1926,-0.1935,-0.191,-0.1889,-0.1887,-0.1758,-0.1723,-0.1798,-0.1839,-0.1839,-0.1839,-0.1838,-0.1838,0,-0.1369,-0.1457,-0.1516,-0.1541,-0.1643,-0.1698,-0.176,-0.183,-0.187,-0.1929,-0.195,-0.198,-0.1986,-0.1982,-0.1934,-0.1945,-0.1913,-0.1919,-0.1768,-0.1757,-0.189,-0.1887,-0.1917,-0.1917,-0.1917,-0.1917,-0.1917,0,-0.1338,-0.1385,-0.1504,-0.1526,-0.1606,-0.169,-0.1765,-0.1826,-0.1899,-0.1919,-0.1977,-0.1979,-0.2005,-0.1985,-0.195,-0.1847,-0.1927,-0.1762,-0.1739,-0.1893,-0.1891,-0.1889,-0.1886,-0.1915,-0.1916,-0.1916,-0.1916,0,-0.126,-0.1338,-0.1407,-0.1536,-0.1579,-0.1632,-0.1756,-0.1793,-0.1883,-0.191,-0.1927,-0.1982,-0.1946,-0.1937,-0.1905,-0.1839,-0.1769,-0.1715,-0.1853,-0.184,-0.16,-0.1599,-0.1543,-0.1537,-0.1533,-0.1529,-0.1526,0,-0.1222,-0.1248,-0.1386,-0.1425,-0.1486,-0.158,-0.1633,-0.1758,-0.1787,-0.1879,-0.187,-0.1882,-0.1887,-0.1725,-0.1749,-0.1661,-0.1642,-0.1602,-0.1621,-0.158,-0.1563,-0.1569,-0.1574,-0.1519,-0.1518,-0.1517,-0.1516,0,-0.1145,-0.1199,-0.1255,-0.1335,-0.1404,-0.1473,-0.1559,-0.1572,-0.1689,-0.1784,-0.1743,-0.1706,-0.1662,-0.1621,-0.1559,-0.1507,-0.1629,-0.1556,-0.1565,-0.1583,-0.1551,-0.154,-0.155,-0.1501,-0.1503,-0.1504,-0.1505,0,-0.108,-0.1095,-0.1168,-0.1226,-0.1304,-0.1335,-0.1405,-0.1438,-0.1488,-0.1594,-0.1569,-0.1582,-0.1634,-0.1538,-0.1484,-0.1415,-0.1396,-0.1355,-0.1375,-0.1392,-0.1363,-0.1302,-0.1144,0,0,0,0,0,-0.1011,-0.1011,-0.1054,-0.1114,-0.1182,-0.1227,-0.1336,-0.1408,-0.1518,-0.1438,-0.1501,-0.1443,-0.1368,-0.139,-0.1281,-0.1415,-0.1405,-0.1285,-0.1371,-0.1416,-0.1434,-0.1413,0,0,0,0,0,0,-0.0964,-0.0992,-0.101,-0.0999,-0.1012,-0.1078,-0.1139,-0.1223,-0.1198,-0.1305,-0.1268,-0.1342,-0.1289,-0.1383,-0.1241,-0.1244,-0.1265,-0.1305,-0.13,-0.1406,-0.1422,-0.1436,-0.1421,0,0,0,0,0]},{"header":{"parameterUnit":"m.s-1","parameterCategory":2,"la1":30.2991,"la2":30.254,"lo1":-89.0895,"lo2":-89.0444,"dy":0.0017,"dx":0.0017,"nx":28,"ny":28,"refTime":"2024-07-18T03:00:00:Z","depth":"4","parameterNumber":3,"parameterNumberName":"V-component_of_CURRENTS"},"data":[0,0,0,0,0,0,0,0,0,0,0,0,0,0,0,0,0,0,0,0,0,0,0,0,0,0,0,0,0,0,0,0,0,0,0,0,0,0,0,0,0,0,0,0,0,0,0,0,0,0,0,0,0,0,0,0,0,0,-0.0191,-0.0191,0,-0.0228,-0.0228,-0.0229,-0.0222,-0.0221,-0.0221,-0.022,-0.0158,-0.0157,-0.0156,0,0,0,0,0,0,0,0,0,0,0,0,0,-0.0164,-0.0165,-0.0191,-0.0191,-0.0192,-0.0227,-0.0228,-0.0229,-0.0222,-0.0221,-0.0221,-0.022,-0.0158,-0.0157,-0.0156,0,0,0,0,0,0,0,0,0,0,0,0,0,-0.0187,-0.0165,-0.0191,-0.0192,-0.0192,-0.0227,-0.0228,-0.0229,-0.0223,-0.0221,-0.022,-0.0219,-0.0158,-0.0157,-0.0156,-0.017,0,0,-0.0151,-0.0151,0,0,0,0,0,0,0,0,-0.0186,-0.0188,-0.0191,-0.0192,-0.0192,-0.0218,-0.0196,-0.0204,-0.0223,-0.0213,-0.022,-0.0219,-0.0169,-0.0166,-0.0179,-0.0167,-0.0164,-0.0151,-0.015,-0.015,-0.0149,0,0,0,0,0,0,0,-0.0184,-0.0187,-0.0207,-0.0192,-0.0192,-0.0207,-0.0209,-0.0198,-0.0196,-0.0213,-0.0213,-0.0215,-0.0168,-0.0181,-0.0177,-0.0164,-0.0151,-0.015,-0.0149,-0.0149,-0.0143,-0.0143,0,0,0,0,0,0,-0.0176,-0.0185,-0.0206,-0.0208,-0.0185,-0.0208,-0.021,-0.0212,-0.0198,-0.0195,-0.0216,-0.0214,-0.0184,-0.0179,-0.0175,-0.0183,-0.015,-0.0148,-0.0148,-0.0142,-0.0143,-0.0144,0,0,0,0,0,0,-0.0175,-0.0177,-0.0204,-0.0196,-0.02,-0.0209,-0.0212,-0.0213,-0.0225,-0.0201,-0.0196,-0.0226,-0.0183,-0.0177,-0.017,-0.018,-0.0148,-0.0147,-0.0141,-0.0142,-0.0143,-0.0203,0,0,0,0,0,0,-0.0174,-0.0177,-0.0181,-0.0196,-0.0201,-0.0233,-0.0213,-0.0215,-0.0228,-0.0226,-0.0208,-0.0201,-0.0181,-0.0172,-0.0168,-0.0178,-0.0145,-0.014,-0.0142,-0.0143,-0.02,-0.0206,-0.0211,0,0,0,0,0,-0.0173,-0.0189,-0.0181,-0.0184,-0.0204,-0.0234,-0.0239,-0.0242,-0.0229,-0.0246,-0.0228,-0.0202,-0.0177,-0.0172,-0.0167,-0.0176,-0.014,-0.0141,-0.0143,-0.0198,-0.0205,-0.0211,0,0,0,0,0,0,-0.0186,-0.019,-0.0182,-0.0199,-0.0215,-0.0232,-0.0248,-0.0247,-0.025,-0.0243,-0.0214,-0.0207,-0.021,-0.0184,-0.0179,-0.0178,-0.0153,-0.0154,-0.0196,-0.0202,-0.0208,-0.018,-0.0144,0,0,0,0,0,-0.0188,-0.0198,-0.0206,-0.0222,-0.0228,-0.0238,-0.025,-0.0253,-0.0255,-0.0257,-0.0243,-0.0223,-0.0216,-0.0201,-0.0196,-0.0191,-0.013,-0.0193,-0.0198,-0.0203,-0.0177,-0.0094,-0.0088,-0.0149,-0.0149,-0.0149,0,0,-0.0198,-0.0202,-0.0208,-0.0225,-0.0235,-0.0258,-0.0243,-0.0267,-0.0283,-0.0247,-0.0262,-0.0249,-0.0222,-0.0226,-0.0222,-0.0201,-0.016,-0.0205,-0.0209,-0.018,-0.0095,-0.0088,-0.0083,-0.015,-0.015,-0.0149,0,0,-0.023,-0.0225,-0.0245,-0.0257,-0.0273,-0.0281,-0.0288,-0.0305,-0.0307,-0.0323,-0.03,-0.0284,-0.0282,-0.0256,-0.0243,-0.0269,-0.0201,-0.0277,-0.0267,-0.0189,-0.0182,-0.0175,-0.0112,-0.0099,-0.0266,-0.0266,-0.0267,0,-0.0241,-0.0261,-0.0259,-0.0281,-0.0292,-0.0291,-0.0316,-0.0327,-0.0341,-0.0327,-0.0333,-0.03,-0.0291,-0.0258,-0.0276,-0.0279,-0.0223,-0.0248,-0.0193,-0.0185,-0.0177,-0.0113,-0.0098,-0.027,-0.0269,-0.0269,-0.0269,0,-0.0288,-0.03,-0.0316,-0.0335,-0.035,-0.0374,-0.038,-0.039,-0.0388,-0.038,-0.0358,-0.0341,-0.0304,-0.0315,-0.0307,-0.0253,-0.023,-0.022,-0.0173,-0.0174,-0.0108,-0.0091,-0.0274,-0.0273,-0.0272,-0.0271,0,0,-0.0315,-0.0342,-0.0345,-0.0359,-0.0376,-0.0398,-0.0411,-0.0413,-0.0398,-0.0399,-0.0361,-0.0363,-0.0324,-0.0305,-0.0286,-0.0222,-0.0149,-0.0198,-0.0192,-0.0128,0.0028,-0.0006,0.0009,-0.0122,-0.0119,-0.0117,0.0044,0,-0.0349,-0.0399,-0.0398,-0.044,-0.0465,-0.0452,-0.0465,-0.0459,-0.0436,-0.04,-0.0351,-0.0322,-0.0329,-0.0305,-0.0244,-0.017,-0.0103,-0.0193,0.0015,0.0021,-0.0002,0.0029,-0.0108,0.0057,0.0061,0.0064,0.0066,0,-0.0391,-0.0417,-0.0467,-0.0483,-0.049,-0.0513,-0.05,-0.0506,-0.0442,-0.0416,-0.0347,-0.0299,-0.0217,-0.0223,-0.0063,-0.0117,-0.0045,0.0014,0.0022,0.0034,0.002,0.0065,0.0097,0.0095,0.0093,0.009,0.0089,0,-0.0421,-0.0459,-0.05,-0.0511,-0.0535,-0.0543,-0.0548,-0.0508,-0.0493,-0.0404,-0.0357,-0.0253,-0.0186,-0.0078,0.002,-0.0003,0.0208,0.0192,0.0235,0.0234,0.0243,0.0234,0.0325,0.0325,0.0324,0.0324,0.0323,0,-0.0452,-0.0483,-0.0521,-0.0545,-0.0584,-0.0578,-0.0585,-0.0563,-0.0499,-0.044,-0.036,-0.027,-0.0141,-0.0014,0.0064,0.0203,0.0248,0.0261,0.0284,0.0207,0.0194,0.0254,0.0243,0.033,0.0329,0.0327,0.0326,0,-0.0476,-0.0503,-0.0555,-0.059,-0.0606,-0.0632,-0.0634,-0.0619,-0.0551,-0.0459,-0.0424,-0.026,-0.0091,0.0026,0.022,0.026,0.0387,0.0422,0.0335,0.0346,0.0351,0.0336,0.0507,0.0507,0.0508,0.0508,0.0508,0,-0.049,-0.0525,-0.0596,-0.0634,-0.0654,-0.0688,-0.0703,-0.0663,-0.062,-0.0438,-0.0378,-0.0192,-0.0079,0.0179,0.0281,0.0438,0.0438,0.05,0.0422,0.037,0.0376,0.036,0.0344,0.0509,0.0509,0.0509,0.0509,0,-0.0513,-0.0547,-0.0591,-0.0672,-0.0713,-0.0745,-0.0741,-0.0704,-0.06,-0.054,-0.0306,-0.0149,0.0047,0.0208,0.032,0.0426,0.0457,0.0503,0.0503,0.0431,0.0375,0.0376,0.0361,0.051,0.051,0.051,0.051,0,-0.0525,-0.0566,-0.0632,-0.0697,-0.0756,-0.0762,-0.0761,-0.0672,-0.0616,-0.0397,-0.0312,-0.0089,0.0046,0.0207,0.0319,0.0405,0.0415,0.0424,0.0428,0.0428,0.0328,0.024,0.0381,0,0,0,0,0,-0.0528,-0.0578,-0.0647,-0.0717,-0.0773,-0.0798,-0.0765,-0.0736,-0.0614,-0.0455,-0.0378,-0.0188,0.0045,0.0157,0.024,0.0279,0.039,0.0374,0.0391,0.0517,0.0515,0.0405,0,0,0,0,0,0,-0.0534,-0.0602,-0.0645,-0.0715,-0.076,-0.0803,-0.0776,-0.0695,-0.0593,-0.045,-0.0329,-0.0208,-0.0004,-0.0019,0.0227,0.026,0.0275,0.049,0.0491,0.0518,0.0516,0.0515,0.0402,0,0,0,0,0]}]]